Torna al catalogo

OPS 4682 DEB

AttivoPO
NORAD 51496·DEBRIS·🇺🇸 United States

Lanciato Apr 3, 1965 da Vandenberg Space Force Base

Loading…

Prossimi Passaggi (prossime 24 ore)

TLE

ObsoletoSource: Space-Track

Epoca: Aug 31, 2026, 13:59 UTC

1 51496U 65027GG  26243.58323213  .00001461  00000-0  48779-2 0  9998
2 51496  90.2622   7.6800 0019707 137.6019 222.6629 12.99257441518388

Traccia OPS 4682 DEB in tempo reale con AllMySat

Download on the App Store